Regional Weather Roundup
Issued by NWS

Home | Current Version | Previous Version | Graphics & Text | Print | Product List | Glossary On
Versions: 1 2 3 4 5 6 7 8 9 10 11 12 13 14 15 16 17 18 19 20 21 22 23 24 25 26 27 28 29 30 31 32 33 34 35 36 37 38 39 40 41 42 43 44 45 46 47 48 49 50
135
ASUS44 KJAN 171903
RWRMS

MISSISSIPPI HOURLY WEATHER ROUNDUP
NATIONAL WEATHER SERVICE JACKSON MS
200 PM CDT WED SEP 17 2014

NOTE: "FAIR: INDICATES FEW OR NO CLOUDS BELOW 12,000 FEET WITH NO
SIGNIFICANT WEATHER AND/OR OBSTRUCTIONS TO VISIBILITY.

MSZ001>002-007>008-010>013-018>021-025>028-034>036-172000-
NORTHWEST MISSISSIPPI

CITY           SKY/WX    TMP DP  RH WIND       PRES   REMARKS
CLARKSDALE     FAIR      82  66  57 CALM      29.97F
CLEVELAND      FAIR      87  69  55 NE3       29.94F HX  91
GREENWOOD      MOSUNNY   87  68  52 MISG      29.95F HX  90
GREENVILLE     MOSUNNY   90  65  43 W6        29.93F HX  92
GRENADA        FAIR      82  64  54 E6        29.97F
OXFORD         FAIR      75  63  64 E5        30.00F
TUNICA         CLOUDY    77  64  65 CALM      29.99F
$$

MSZ003>006-009-014>017-022>024-029>033-037>039-172000-
NORTHEAST MISSISSIPPI

CITY           SKY/WX    TMP DP  RH WIND       PRES   REMARKS
COLUMBUS AFB   PTSUNNY   83  65  54 N3        29.96F
CORINTH        FAIR      77  61  57 N6        29.98F
GOLDN TRIANGLE PTSUNNY   88  66  48 N9        29.97F HX  90
STARKVILLE     FAIR      82  66  57 N5        29.96F
TUPELO         CLOUDY    79  62  56 N6        29.98F
$$

MSZ040-058-172000-
CENTRAL MISSISSIPPI

CITY           SKY/WX    TMP DP  RH WIND       PRES   REMARKS
JACKSON INTL   PTSUNNY   87  68  52 E3        29.94F HX  90
JACKSON HAWKNS SUNNY     90  67  46 CALM      29.95F HX  93
MERIDIAN KEY   MOSUNNY   91  63  39 N7        29.94F HX  92
MERIDIAN NAS   MOSUNNY   88  65  46 NW9       29.95F HX  90
RAYMOND        FAIR      90  84  84 SE3       29.95F HX 115
VICKSBURG      MOSUNNY   89  65  44 VRB5      29.93F HX  91
$$

MSZ059>079-172000-
SOUTH MISSISSIPPI

CITY           SKY/WX    TMP DP  RH WIND       PRES   REMARKS
BROOKHAVEN     FAIR      88  70  55 S5        29.97F HX  92
HATTIESBURG    SUNNY     89  68  49 S3        29.94F HX  93
MCCOMB         PTSUNNY   86  69  56 CALM      29.95F HX  90
NATCHEZ        MOSUNNY   86  72  62 S3        29.96F HX  92
PINE BELT      SUNNY     88  66  48 E5        29.96F HX  90
$$

MSZ080>082-172000-
COASTAL MISSISSIPPI

CITY           SKY/WX    TMP DP  RH WIND       PRES   REMARKS
BAY ST LOUIS   MOSUNNY   82  72  69 W3        29.94F
BILOXI         SUNNY     89  72  57 S9        29.93F HX  95
PASCAGOULA     SUNNY     88  69  53 CALM      29.92F HX  92
GULFPORT       MOSUNNY   87  72  60 S9        29.93F HX  93
$$



USA.gov is the U.S. government's official web portal to all federal, state and local government web resources and services.